• MPC Preparation (Info)

  • MPEC 2023-F192 : 2023 FM6

    The following Minor Planet Electronic Circular may be linked-to from your own Web pages, but must not otherwise be redistributed electronically.

    A form allowing access to any MPEC is at the bottom of this page.


    Read MPEC 2023-F191 Read MPEC 2023-F193


    M.P.E.C. 2023-F192                               Issued 2023 March 28, 15:36 UT
    
         The Minor Planet Electronic Circulars contain information on unusual
             minor planets, routine data on comets and natural satellites,
             and occasional editorial announcements.  They are published
        on behalf of Division F of the International Astronomical Union by the
              Minor Planet Center, Smithsonian Astrophysical Observatory,
                              Cambridge, MA 02138, U.S.A.
    			  
                 Prepared using the Tamkin Foundation Computer Network
    
                                  MPC@CFA.HARVARD.EDU
                URL https://www.minorplanetcenter.net/    ISSN 1523-6714
    
                                    2023 FM6                                 
    
    
    Observations:
         K23F06M* C2023 03 25.24618109 04 44.093+28 33 09.50         21.22wUEF192F51
         K23F06M  C2023 03 25.26766009 04 43.220+28 34 00.37         21.20wUEF192F51
         K23F06M  C2023 03 25.27844909 04 42.782+28 34 25.88         21.27wUEF192F51
         K23F06M IC2023 03 25.97799809 04 18.49 +29 01 33.0          20.5 GVEF192L01
         K23F06M hC2023 03 25.98106709 04 18.38 +29 01 40.1          20.3 GVEF192L01
         K23F06M hC2023 03 25.98413709 04 18.33 +29 01 47.5          20.5 GVEF192L01
         K23F06M hC2023 03 25.98728109 04 18.26 +29 01 54.2          20.3 GVEF192L01
         K23F06M hC2023 03 25.99127809 04 18.11 +29 02 02.7          20.2 GVEF192L01
         K23F06M KC2023 03 26.05602609 04 16.82 +29 04 36.8          21.9 GVEF192H21
         K23F06M KC2023 03 26.06161709 04 16.61 +29 04 49.8          22.0 GVEF192H21
         K23F06M KC2023 03 26.06497209 04 16.47 +29 04 58.0          21.8 GVEF192H21
         K23F06M KC2023 03 26.36094909 04 06.136+29 16 20.10         21.25GVEF192I52
         K23F06M KC2023 03 26.37205209 04 05.707+29 16 45.19         20.81GVEF192I52
         K23F06M KC2023 03 26.37738409 04 05.542+29 16 57.61         20.61GVEF192I52
         K23F06M  C2023 03 27.22429209 03 41.959+29 49 14.84         21.52GVEF192F52
         K23F06M 1C2023 03 27.88820 09 03 23.63 +30 13 58.9          21.9 VXEF192033
         K23F06M 1C2023 03 27.89033 09 03 23.56 +30 14 03.6          22.2 VXEF192033
         K23F06M 1C2023 03 27.89247 09 03 23.50 +30 14 08.6          22.0 VXEF192033
    
    Observer details:
    033 Karl Schwarzschild Observatory, Tautenburg.  Observers S. Melnikov, C.
        Hoegner, F. Ludwig, B. Stecklum.  Measurer B. Stecklum.  1.34-m f/3
        Schmidt + CCD.
    F51 Pan-STARRS 1, Haleakala.  Observers J. Bulger, T. Lowe, A. Schultz, I.
        Smith.  Measurers K. Chambers, S. Chastel, T. de Boer, J. Fairlamb, H.
        Gao, M. Huber, C.-C. Lin, E. Magnier, Y. Ramanjooloo, R. Wainscoat, R.
        Weryk.  1.8-m Ritchey-Chretien + CCD.
    F52 Pan-STARRS 2, Haleakala.  Observers J. Bulger, K. Chambers, T. Dukes, T.
        Lowe, A. Schultz, I. Smith.  Measurers S. Chastel, J. Fairlamb, M. Huber,
        Y. Ramanjooloo, R. Wainscoat, R. Weryk.  1.8-m Ritchey-Chretien + CCD.
    H21 Astronomical Research Observatory, Westfield.  Observer R. Holmes.
        Measurers T. Linder, R. Holmes, L. Horn.  0.76-m f/3.0 astrograph + CCD.
    I52 Steward Observatory, Mt. Lemmon Station.  Observer R. A. Kowalski.
        Measurers E. J. Christensen, D. Fay, J. B. Fazekas, D. C. Fuls, A. R.
        Gibbs, A. D. Grauer, H. Groeller, J. K. Hogan, R. A. Kowalski, S. M.
        Larson, G. J. Leonard, D. Rankin, R. L. Seaman, A. Serrano, F. C. Shelly,
        K. W. Wierzchos.  1.0-m prime focus + CCD.
    L01 Visnjan Observatory, Tican.  Observer K. Korlevic.  1.0-m f/2.9 reflector
        + CCD.
    
    Orbital elements:
    2023 FM6                                                 Earth MOID = 0.3655 AU
    Epoch 2023 Feb. 25.0 TT = JDT 2460000.5                 Bell                    
    M 306.28875              (2000.0)            P               Q                  
    n   0.40776479     Peri.   94.06012     -0.28231148     +0.93369873             
    a   1.8010657      Node   155.69493     -0.94366243     -0.31159871             
    e   0.3932358      Incl.   32.35043     +0.17263097     -0.17638858             
    P   2.42           H   20.05          G   0.15           U   9                  
    Residuals in seconds of arc
    230325 F51  0.1-  0.0     230325 L01  1.5+  0.4-    230326 I52  0.4-  0.2+
    230325 F51  0.0   0.0     230325 L01  1.4+  1.1-    230326 I52  0.3-  0.5+
    230325 F51  0.0   0.0     230326 H21  0.1+  0.2-    230327 F52  0.1+  0.1-
    230325 L01  0.3+  0.3-    230326 H21  0.0   0.2-    230327 033  0.0   0.1+
    230325 L01  0.2+  0.2-    230326 H21  0.2-  0.2+    230327 033  0.1-  0.1+
    230325 L01  1.0+  0.1+    230326 I52  0.4+  0.3+    230327 033  0.1-  0.4+
    
    Ephemeris:
    2023 FM6                 a,e,i = 1.80, 0.39, 32                  q = 1.0928
    Date    TT    R. A. (2000) Decl.     Delta      r    Elong.  Phase     V
    2023 02 26    09 36 51.0 +07 37 00   0.6407  1.6187   165.8     8.6    20.7
    ...
    2023 03 13    09 15 57.4 +19 38 53   0.6202  1.5368   143.4    22.7    21.0
    ...
    2023 03 21    09 07 44.4 +25 39 27   0.6341  1.4930   131.4    30.0    21.2
    ...
    2023 03 27    09 03 47.9 +29 40 43   0.6526  1.4602   123.1    34.9    21.4
    2023 03 28    09 03 21.1 +30 18 11   0.6562  1.4547   121.8    35.7    21.4
    2023 03 29    09 02 58.0 +30 54 50   0.6599  1.4493   120.5    36.4    21.4
    ...
    2023 04 04    09 02 00.0 +34 18 07   0.6842  1.4168   113.2    40.4    21.6
    ...
    2023 04 12    09 04 19.4 +38 07 04   0.7199  1.3742   104.7    44.9    21.7
    ...
    2023 04 27    09 19 33.9 +43 26 14   0.7860  1.2975    91.9    50.8    22.0
    
    M. P. C. Staff               (C) Copyright 2023 MPC           M.P.E.C. 2023-F192
    


    Read MPEC 2023-F191 Read MPEC 2023-F193


    MPEC number:

    Enter an MPEC number in one of the following forms:

    • 1997-B01 (the full form)
    • J97B01 (the packed version of the full form)
    • B01 (the abbreviated form)